Location: Home
(51.5204°N, 2.5456°W)
Time: 04:44:48
(UTC+00:00)

Envisat - Visible Passes

Search period start: 19 February 2019 00:00
Search period end: 01 March 2019 00:00
Orbit: 764 x 766 km, 98.2° (Epoch: 18 February)

Date Brightness Start Highest point End Pass type
(mag) Time Alt. Az. Time Alt. Az. Time Alt. Az.
19 Feb 6.0 06:33:17 10° NE 06:36:50 19° E 06:40:20 10° SE visible
19 Feb 4.7 19:31:54 10° SSW 19:36:30 34° W 19:41:07 10° NNW visible
20 Feb 3.4 18:54:30 10° S 18:59:33 67° WSW 19:04:39 10° NNW visible
20 Feb 6.2 20:38:31 10° W 20:39:35 11° W 20:40:39 10° WNW visible
21 Feb 3.0 18:17:47 10° SSE 18:22:48 65° ENE 18:27:51 10° N visible
21 Feb 5.5 19:58:26 10° SW 20:02:17 21° W 20:06:10 10° NW visible
22 Feb 6.2 06:22:31 10° NE 06:25:28 15° E 06:28:23 10° ESE visible
22 Feb 4.4 19:20:25 10° SSW 19:25:13 41° W 19:30:02 10° NNW visible
23 Feb 3.1 18:43:14 10° SSE 18:48:19 81° WSW 18:53:27 10° NNW visible
23 Feb 6.1 20:25:47 10° WSW 20:28:11 13° W 20:30:36 10° NW visible
24 Feb 3.2 18:06:42 10° SE 18:11:38 53° ENE 18:16:35 10° N visible
24 Feb 5.2 19:46:45 10° SSW 19:50:58 26° W 19:55:12 10° NW visible
25 Feb 6.4 06:12:01 10° ENE 06:14:04 12° E 06:16:08 10° ESE visible
25 Feb 4.0 19:09:00 10° S 19:13:56 50° W 19:18:54 10° NNW visible
26 Feb 3.0 18:32:01 10° SSE 18:37:07 84° ENE 18:42:13 10° NNW visible
26 Feb 5.9 20:13:39 10° SW 20:16:49 16° W 20:19:59 10° NW visible
27 Feb 4.9 19:35:09 10° SSW 19:39:39 31° W 19:44:11 10° NNW visible
28 Feb 3.6 18:57:39 10° S 19:02:41 62° WSW 19:07:44 10° NNW visible
